This is the latest recevied weather packets stored in our database for station/object AB4KN. If no packets are shown the sender has not sent any weather packets the latest 10 day(s).
| Time | Temp. | Humidity | Pressure | Rain* | Wind** | Luminosity | Snow |
|---|---|---|---|---|---|---|---|
| 1777658761 | 17.78° C | 62% | 1019.1 hPa | 0 mm | - | 57 W/m² | - |
| 1777658456 | 17.78° C | 60% | 1019.1 hPa | 0 mm | - | 55 W/m² | - |
| 1777658153 | 17.22° C | 65% | 1019.3 hPa | 0 mm | - | 78 W/m² | - |
| 1777657850 | 17.22° C | 66% | 1019.1 hPa | 0 mm | - | 83 W/m² | - |
| 1777657547 | 17.22° C | 67% | 1019.1 hPa | 0 mm | - | 60 W/m² | - |
| 1777657245 | 17.22° C | 66% | 1019.1 hPa | 0 mm | - | 41 W/m² | - |
| 1777656942 | 17.78° C | 66% | 1019.3 hPa | 0 mm | - | 36 W/m² | - |
| 1777656638 | 17.78° C | 62% | 1019.3 hPa | 0 mm | - | 30 W/m² | - |
| 1777656334 | 17.78° C | 61% | 1019.6 hPa | 0 mm | - | 48 W/m² | - |
| 1777656030 | 17.78° C | 60% | 1019.4 hPa | 0 mm | - | 63 W/m² | - |
| 1777655726 | 17.78° C | 62% | 1019.5 hPa | 0 mm | - | 83 W/m² | - |
| 1777655423 | 17.22° C | 65% | 1019.3 hPa | 0 mm | - | 87 W/m² | - |
| 1777655120 | 17.78° C | 67% | 1019.6 hPa | 0 mm | - | 88 W/m² | - |
| 1777654817 | 17.22° C | 62% | 1019.4 hPa | 0 mm | - | 62 W/m² | - |
| 1777654515 | 17.22° C | 67% | 1019.3 hPa | 0 mm | - | 58 W/m² | - |
| 1777654212 | 17.22° C | 68% | 1019.4 hPa | 0 mm | - | 71 W/m² | - |
| 1777653910 | 17.22° C | 68% | 1019.6 hPa | 0 mm | - | 61 W/m² | - |
| 1777653606 | 17.22° C | 69% | 1019.6 hPa | 0 mm | - | 51 W/m² | - |
| 1777653302 | 17.22° C | 67% | 1019.4 hPa | 0 mm | - | 53 W/m² | - |
| 1777652999 | 17.22° C | 67% | 1019.3 hPa | 0 mm | - | 62 W/m² | - |
| 1777652696 | 17.22° C | 67% | 1019.5 hPa | 0 mm | - | 59 W/m² | - |
| 1777652393 | 17.22° C | 65% | 1019.5 hPa | 0 mm | - | 43 W/m² | - |
| 1777652089 | 17.22° C | 66% | 1019.5 hPa | 0 mm | - | 63 W/m² | - |
| 1777651786 | 17.22° C | 65% | 1019.6 hPa | 0 mm | - | 59 W/m² | - |
| 1777651483 | 17.22° C | 66% | 1019.5 hPa | 0 mm | - | 64 W/m² | - |
* Rain latest hour (hover to see other rain measurements)
** Current wind speed in m/s (hover to see current wind gust speed)